WetterOnline ( https://www.wetteronline.de )

Wetter aktuell Bad Driburg

Aktuelles Wetter: Bad Lippspringe (158m)

6-stündlich | Neueste Meldungen
Ortszeit Temperatur Wetter
Mi, 04.08. 20:00 18.9° C wolkig
Mi, 04.08. 14:00 17.6° C leichter Regen
Mi, 04.08. 8:00 15.1° C bewölkt
Mi, 04.08. 2:00 13.5° C bedeckt
Di, 03.08. 20:00 17.0° C bedeckt
Di, 03.08. 14:00 18.5° C bedeckt
Di, 03.08. 8:00 12.9° C bedeckt
Di, 03.08. 2:00 13.0° C bewölkt
Ortszeit Temperatur Wetter
Mi, 04.08. 22:00 16.2° C bewölkt
Mi, 04.08. 21:50 16.2° C bewölkt
Mi, 04.08. 21:40 16.4° C bewölkt
Mi, 04.08. 21:30 16.6° C bedeckt
Mi, 04.08. 21:20 16.6° C bedeckt
Mi, 04.08. 21:10 16.6° C bedeckt
Mi, 04.08. 21:00 16.7° C bewölkt
Mi, 04.08. 20:30 18.0° C bedeckt
Mi, 04.08. 20:00 18.9° C wolkig
Mi, 04.08. 19:30 19.5° C wolkig
Mi, 04.08. 19:00 20.0° C wolkig
Ortszeit Relative Feuchte Sichtweite
Mi, 04.08. 20:00 77% 50 km
Mi, 04.08. 14:00 78% 16 km
Mi, 04.08. 8:00 86% 40 km
Mi, 04.08. 2:00 95% 29 km
Di, 03.08. 20:00 79% 50 km
Di, 03.08. 14:00 54% 55 km
Di, 03.08. 8:00 91% 9 km
Di, 03.08. 2:00 96% 9 km
Ortszeit Relative Feuchte Sichtweite
Mi, 04.08. 22:00 89% 40 km
Mi, 04.08. 21:50 89% -
Mi, 04.08. 21:40 87% -
Mi, 04.08. 21:30 87% 40 km
Mi, 04.08. 21:20 87% -
Mi, 04.08. 21:10 89% -
Mi, 04.08. 21:00 89% 40 km
Mi, 04.08. 20:30 84% 50 km
Mi, 04.08. 20:00 77% 50 km
Mi, 04.08. 19:30 70% 65 km
Mi, 04.08. 19:00 67% 55 km
Ortszeit Niederschlagsmenge Niederschlagsart
Mi, 04.08. 20:00 0.7 l/m2 in 12 Std. Regen
Mi, 04.08. 14:00 0.1 l/m2 in 6 Std. Regen
Mi, 04.08. 8:00 0.1 l/m2 in 12 Std. Regen
Mi, 04.08. 2:00 0.1 l/m2 in 6 Std. Regen
Di, 03.08. 20:00 0.1 l/m2 in 12 Std. Regen
Di, 03.08. 14:00 0.0 l/m2 in 6 Std. -
Di, 03.08. 8:00 0.2 l/m2 in 12 Std. -
Di, 03.08. 2:00 0.2 l/m2 in 6 Std. Regen
Ortszeit Niederschlagsmenge Niederschlagsart
Mi, 04.08. 22:00 0.0 l/m2 in 1 Std. -
Mi, 04.08. 21:50 keine Meldung -
Mi, 04.08. 21:40 keine Meldung -
Mi, 04.08. 21:30 0.0 l/m2 in 1 Std. -
Mi, 04.08. 21:20 keine Meldung -
Mi, 04.08. 21:10 keine Meldung -
Mi, 04.08. 21:00 0.0 l/m2 in 1 Std. -
Mi, 04.08. 20:30 0.0 l/m2 in 1 Std. -
Mi, 04.08. 20:00 0.0 l/m2 in 1 Std. Regen
Mi, 04.08. 19:30 0.0 l/m2 in 1 Std. -
Mi, 04.08. 19:00 0.0 l/m2 in 1 Std. -
Ortszeit Stärke Spitze Richtung
km/h Bft. km/h Grad Sektor
Mi, 04.08. 20:00 4 1 14 120° SO
Mi, 04.08. 14:00 11 2 18 190° S
Mi, 04.08. 8:00 2 1 6 80° O
Mi, 04.08. 2:00 0 0 7 - -
Di, 03.08. 20:00 4 1 14 20° N
Di, 03.08. 14:00 6 1 19 150° SO
Di, 03.08. 8:00 2 1 9 60° NO
Di, 03.08. 2:00 4 1 18 150° SO
Ortszeit Stärke Spitze Richtung
km/h Bft. km/h Grad Sektor
Mi, 04.08. 22:00 2 1 7 180° S
Mi, 04.08. 21:50 2 1 - 180° S
Mi, 04.08. 21:40 4 1 - 170° S
Mi, 04.08. 21:30 4 1 7 120° SO
Mi, 04.08. 21:20 4 1 - 120° SO
Mi, 04.08. 21:10 6 1 - 90° O
Mi, 04.08. 21:00 6 1 7 70° O
Mi, 04.08. 20:30 4 1 7 130° SO
Mi, 04.08. 20:00 4 1 11 120° SO
Mi, 04.08. 19:30 4 1 11 90° O
Mi, 04.08. 19:00 7 2 11 70° O
Ortszeit Untergrenze Bedeckung Gattung
total tief tief mittel hoch
Mi, 04.08. 20:00 2700 m 7/8 5/8 - - -
Mi, 04.08. 14:00 1500 m 7/8 7/8 - - -
Mi, 04.08. 8:00 2100 m 7/8 7/8 - - -
Mi, 04.08. 2:00 2700 m 8/8 8/8 - - -
Di, 03.08. 20:00 1800 m 8/8 8/8 - - -
Di, 03.08. 14:00 1110 m 8/8 8/8 - - -
Di, 03.08. 8:00 6900 m 8/8 8/8 - - -
Di, 03.08. 2:00 750 m 7/8 7/8 - - -
Ortszeit Bedeckungsgrad in Achtel und Wolkenuntergrenze
Mi, 04.08. 22:00 4(1800m) 6(2700m) 8(3900m)
Mi, 04.08. 21:50 4(1800m) 6(2700m) 8(3900m)
Mi, 04.08. 21:40 6(2700m) 8(3600m)
Mi, 04.08. 21:30 1(2400m) 8(2700m) 8(3600m)
Mi, 04.08. 21:20 1(2400m) 8(2700m) 8(3600m)
Mi, 04.08. 21:10 1(1290m) 8(2700m) 8(3900m)
Mi, 04.08. 21:00 4(2700m) 8(3900m) 8(4500m)
Mi, 04.08. 20:30 7(3300m) 8(3900m) 8(4500m)
Mi, 04.08. 20:00 5(2700m) 7(3300m) 7(4200m)
Mi, 04.08. 19:30 5(2700m)
Mi, 04.08. 19:00 5(2400m) 6(3300m)
Ortszeit Luftdruck NN (hPa) Tendenz (hPa in 3 Std.)
Mi, 04.08. 20:00 1012 - 0,8
Mi, 04.08. 14:00 1013 - 0,3
Mi, 04.08. 8:00 1014 + 0,6
Mi, 04.08. 2:00 1013 0,0
Di, 03.08. 20:00 1012 - 0,1
Di, 03.08. 14:00 1013 - 0,9
Di, 03.08. 8:00 1015 - 0,2
Di, 03.08. 2:00 1015 - 0,1
Ortszeit Luftdruck NN (hPa) Tendenz (hPa in 3 Std.)
Mi, 04.08. 22:00 1013 + 0,5
Mi, 04.08. 21:50 1013 keine Meldung
Mi, 04.08. 21:40 1013 keine Meldung
Mi, 04.08. 21:30 1012 + 0,1
Mi, 04.08. 21:20 1012 keine Meldung
Mi, 04.08. 21:10 1012 keine Meldung
Mi, 04.08. 21:00 1012 - 0,3
Mi, 04.08. 20:30 1012 - 0,6
Mi, 04.08. 20:00 1012 - 0,8
Mi, 04.08. 19:30 1012 - 0,8
Mi, 04.08. 19:00 1012 - 0,9
Ortszeit Schneehöhe (cm)
Mi, 04.08. 20:00 -
Mi, 04.08. 14:00 -
Mi, 04.08. 8:00 -
Mi, 04.08. 2:00 -
Di, 03.08. 20:00 -
Di, 03.08. 14:00 -
Di, 03.08. 8:00 -
Di, 03.08. 2:00 -
Ortszeit Schneehöhe (cm)
Mi, 04.08. 22:00 -
Mi, 04.08. 21:50 -
Mi, 04.08. 21:40 -
Mi, 04.08. 21:30 -
Mi, 04.08. 21:20 -
Mi, 04.08. 21:10 -
Mi, 04.08. 21:00 -
Mi, 04.08. 20:30 -
Mi, 04.08. 20:00 -
Mi, 04.08. 19:30 -
Mi, 04.08. 19:00 -
Link zu dieser Seite / Seite empfehlen

Das Wetter in ...